Location: São Paulo
(23.5507°S, 46.6334°W)
Time: 17:39:49
(UTC-03:00)

A-11 Canister half - Pass Details

Date: 07 February 2026
Orbit: 1524 x 1683 km, 47.3° (Epoch: 13 March)

Event Time Altitude Azimuth Distance (km) Brightness Sun altitude
Exits shadow 04:55:00 - 334° (NNW) 4,650 11.1 -12.6°
Reaches altitude 10° 04:57:35 10° 338° (NNW) 3,878 10.7 -12.0°
Maximum altitude 05:07:07 51° 51° (NE) 2,021 9.8 -10.0°
Drops below altitude 10° 05:16:50 10° 123° (ESE) 3,958 12.7 -7.9°
Sets 05:20:07 0° 127° (SE) 4,948 13.4 -7.2°
